#timestamp,LO_Frequency,Hit,StdDev 
1517810415.9,286046998.1,N
1517810435.7,286046999.2,N
1517810455.6,286047001.0,N
1517810475.4,286046998.5,N
1517810495.2,286047000.5,N
1517810515.1,286047002.6,N
1517810516.0,286047002.6,N
1517810535.8,286046998.3,N
1517810555.7,286047000.8,N
1517810575.5,286046998.9,N
1517810595.3,286046998.2,N
1517810615.5,286046998.8,N
1517810635.3,286046998.0,N
1517810655.2,286046995.6,N
1517810675.9,286046997.2,N
1517810695.7,286046994.9,N
1517810715.6,286047011.9,Y
1517810735.4,286046999.2,P
1517810755.2,286046996.5,P
1517810775.1,286047001.1,N
1517810776.0,286047001.1,N
1517810795.8,286047000.7,N
1517810815.7,286046998.7,N
1517810835.5,286046997.4,N
1517810855.3,286046999.3,N
1517810875.2,286046997.8,N
1517810895.0,286046995.3,Y
1517810895.9,286046995.3,P
1517810915.8,286046997.5,N
1517810935.6,286046996.6,N
1517810955.4,286046999.5,N
1517810975.3,286046998.3,N
1517810995.1,286046998.2,N
1517811015.8,286047000.6,N
1517811035.7,286046998.6,N
1517811055.5,286046998.9,N
1517811075.4,286046996.5,N
1517811095.2,286046999.2,N
1517811115.0,286046997.0,N
1517811115.9,286046997.0,N
1517811135.8,286046996.7,N
1517811155.6,286046997.4,N
1517811175.5,286046997.5,N
1517811195.3,286046997.7,N
1517811215.1,286046997.5,N
1517811235.9,286046996.6,N
1517811255.7,286046996.5,N
1517811275.5,286046999.0,N
1517811295.4,286047000.9,N
1517811315.2,286046999.8,N
1517811335.0,286046999.7,N
1517811336.0,286046999.7,N
1517811355.8,286047002.5,N
1517811375.6,286047003.9,N
1517811395.5,286047001.8,N
1517811415.3,286047001.3,N
1517811435.1,286047003.8,N
1517811455.9,286047003.3,N
1517811475.7,286047003.5,N
1517811495.6,286047003.8,N
1517811515.4,286047003.8,N
1517811535.2,286047001.8,N
1517811555.1,286047003.9,N
1517811556.0,286047003.9,N
1517811575.8,286047003.2,N
1517811595.7,286047003.6,N
1517811615.5,286047003.7,N
1517811635.3,286047005.3,N
1517811655.2,286047004.8,N
1517811675.9,286047003.0,N
1517811695.7,286047004.8,N
1517811715.6,286047005.5,N
1517811735.4,286047007.4,N
1517811755.2,286047006.9,N
1517811775.1,286047007.6,N
1517811776.0,286047007.6,N
1517811795.8,286047005.1,N
1517811815.7,286047005.8,N
1517811835.5,286047004.1,N
1517811855.3,286047004.0,N
1517811875.2,286047003.5,N
1517811895.0,286047003.9,N
1517811895.9,286047003.9,N
1517811915.8,286047001.5,N
1517811935.6,286047001.7,N
1517811955.4,286047003.7,N
1517811975.3,286047005.4,Y
1517811995.1,286047002.4,P
1517812015.8,286047002.2,N
1517812035.7,286047000.0,N
1517812055.5,286047000.5,N
1517812075.4,286047002.8,N
1517812095.2,286047002.4,N
1517812115.0,286047003.8,N
1517812115.9,286047003.8,N
1517812135.8,286047004.3,Y
1517812155.6,286047000.2,P
1517812175.5,286046999.8,N
1517812195.3,286047000.3,N
1517812215.1,286047000.7,N
1517812235.9,286046998.5,N
1517812255.7,286046998.2,N
1517812275.5,286046998.7,N
1517812295.4,286046999.4,N
1517812315.2,286046998.1,N
1517812335.1,286047002.4,N
1517812336.0,286047002.4,N
1517812355.8,286047000.1,N
1517812375.6,286047002.3,N
1517812395.5,286047002.8,N
1517812415.3,286047000.8,N
1517812435.1,286046998.7,N
1517812455.9,286047000.6,N
1517812475.7,286047001.1,N
1517812495.6,286046999.4,N
1517812515.4,286046999.1,N
1517812535.2,286046998.5,N
1517812555.1,286047000.0,N
1517812556.0,286047000.0,N
1517812575.8,286047000.5,N
1517812595.6,286046999.8,N
1517812615.5,286046999.9,N
1517812635.3,286046998.3,N
1517812655.2,286047000.6,N
1517812675.9,286046998.6,N
1517812695.7,286047002.3,N
1517812715.6,286047002.3,N
1517812735.4,286047000.8,N
1517812755.2,286046998.1,N
1517812775.1,286046998.3,N
1517812776.0,286046998.3,N
1517812795.8,286047000.6,N
1517812815.7,286047000.6,N
1517812835.5,286047000.3,N
1517812855.3,286047002.7,N
1517812875.2,286047002.5,N
1517812895.0,286047002.6,N
1517812895.9,286047002.6,N
1517812915.7,286047002.2,N
1517812935.6,286047002.7,N
1517812955.4,286047001.7,N
1517812975.3,286047004.0,N
1517812995.1,286047003.7,N
1517812996.0,286047003.7,N
1517813015.8,286047004.1,N
1517813035.7,286047004.4,N
1517813055.5,286047005.5,N
1517813075.3,286047001.8,N
1517813095.2,286047003.8,N
1517813115.0,286047003.5,N
1517813115.9,286047003.5,N
1517813135.8,286047003.3,N
1517813155.6,286047003.1,N
1517813175.4,286047005.5,N
1517813195.3,286047004.3,N
1517813215.1,286047004.0,N
1517813235.9,286047002.2,N
1517813255.7,286047001.4,N
1517813275.5,286047001.8,N
1517813295.4,286047004.2,N
1517813315.2,286047002.3,N
1517813335.1,286047002.2,N
1517813336.0,286047002.2,N
1517813355.8,286047001.7,N
1517813375.6,286047002.3,N
1517813395.5,286047001.9,N
1517813415.3,286047004.0,Y
1517813435.2,286046999.6,P
1517813455.9,286046997.3,N
1517813475.7,286046999.6,N
1517813495.6,286046997.7,N
1517813515.4,286046999.0,N
1517813535.2,286046998.5,N
1517813555.1,286046998.4,N
1517813556.0,286046998.4,N
1517813575.8,286047001.2,N
1517813595.7,286046998.2,N
1517813615.5,286046998.9,N
1517813635.3,286046999.1,N
1517813655.2,286046996.9,N
1517813675.0,286046999.0,N
1517813675.9,286046999.0,N
1517813695.7,286046999.6,N
1517813715.6,286046999.2,N
1517813735.4,286046996.5,N
1517813755.3,286046996.5,N
1517813775.1,286046998.8,N
1517813795.8,286046998.6,N
1517813815.7,286047001.1,N
1517813835.5,286046998.9,N
1517813855.4,286046998.9,N
1517813875.2,286046998.3,N
1517813895.0,286047001.1,N
1517813895.9,286047001.1,N
1517813915.8,286046998.1,N
1517813935.6,286046998.5,N
1517813955.4,286046998.2,N
1517813975.3,286047000.6,N
1517813995.1,286046999.0,N
